Homer, AK

8:53 PM AKDT on July 24, 2017 (GMT -0800)
Homer

Weather History for PAHO - November, 2010

Change the Weather History Date:

Tuesday, November 16, 2010

  Actual Average Record
Temperature  
Mean Temperature 20 °F -  
Max Temperature 24 °F 35 °F 53 °F (2014)
Min Temperature 17 °F 22 °F -3 °F (1945)
Degree Days  
Heating Degree Days 44    
Moisture  
Dew Point 5 °F    
Average Humidity 52    
Maximum Humidity 62    
Minimum Humidity 46    
Precipitation  
Precipitation 0.00 in - - ()
Sea Level Pressure  
Sea Level Pressure 30.40 in    
Wind  
Wind Speed 10 mph (NE)    
Max Wind Speed 17 mph    
Max Gust Speed 30 mph    
Visibility 10 miles    
Events      
Averages and records for this station are not official NWS values.
T = Trace of Precipitation, MM = Missing Value Source: NWS Daily Summary

Daily Weather History Graph

Daily Weather History Graph

Search for Another Location

Airport or City:

Trip Planner

Search our weather history database for the weather conditions in past years. The results will help you decide how hot, cold, wet, or windy it might be!

Date:

Astronomy

Nov. 16, 2010 Rise Set
Actual Time 9:04 AM AKST 4:35 PM AKST
Civil Twilight 8:16 AM AKST 5:24 PM AKST
Nautical Twilight 7:24 AM AKST 6:16 PM AKST
Astronomical Twilight 6:35 AM AKST 7:04 PM AKST
Moon 2:42 PM AKST (11/16) 3:12 AM AKST (11/16)
Length of Visible Light 9h 08m
Length of Day
7h 31m
Waxing Gibbous, 78% of the Moon is Illuminated
Nov 16
Waxing Gibbous
Nov 21
Full
Nov 28
Last Quarter
Dec 5
New
Dec 13
First Quarter

Hourly Weather History & Observations

Time (AKST) Temp. Windchill Dew Point Humidity Pressure Visibility Wind Dir Wind Speed Gust Speed Precip Events Conditions
12:53 AM 19.9 °F 7.9 °F 3.0 °F 48% 30.28 in 10.0 mi NE 11.5 mph 19.6 mph N/A   Scattered Clouds
1:53 AM 19.9 °F 6.7 °F 3.0 °F 48% 30.28 in 10.0 mi NE 13.8 mph 25.3 mph N/A   Clear
2:53 AM 19.9 °F 5.2 °F 3.0 °F 48% 30.28 in 10.0 mi NNE 17.3 mph 29.9 mph N/A   Clear
3:53 AM 19.9 °F 7.3 °F 3.0 °F 48% 30.28 in 10.0 mi NNE 12.7 mph 21.9 mph N/A   Mostly Cloudy
4:53 AM 19.0 °F 6.8 °F 3.0 °F 50% 30.28 in 10.0 mi NE 11.5 mph 16.1 mph N/A   Mostly Cloudy
5:53 AM 19.0 °F 10.0 °F 3.0 °F 50% 30.29 in 10.0 mi NNE 6.9 mph - N/A   Clear
6:53 AM 19.0 °F 5.6 °F 3.9 °F 52% 30.29 in 10.0 mi NE 13.8 mph 20.7 mph N/A   Clear
7:53 AM 17.1 °F 10.0 °F 3.9 °F 56% 30.31 in 10.0 mi ENE 4.6 mph - N/A   Clear
8:53 AM 17.1 °F 5.8 °F 5.0 °F 59% 30.32 in 10.0 mi NE 9.2 mph - N/A   Clear
9:53 AM 17.1 °F 11.7 °F 3.9 °F 56% 30.34 in 10.0 mi NNE 3.5 mph - N/A   Clear
10:53 AM 19.9 °F 14.9 °F 3.9 °F 50% 30.36 in 10.0 mi NE 3.5 mph - N/A   Clear
11:53 AM 21.9 °F 10.4 °F 6.1 °F 51% 30.36 in 10.0 mi NE 11.5 mph 21.9 mph N/A   Clear
12:53 PM 21.9 °F 12.5 °F 6.1 °F 51% 30.38 in 10.0 mi NNE 8.1 mph - N/A   Clear
1:53 PM 23.0 °F 10.6 °F 7.0 °F 50% 30.40 in 10.0 mi ENE 13.8 mph 19.6 mph N/A   Clear
2:53 PM 24.1 °F 14.4 °F 6.1 °F 46% 30.43 in 10.0 mi NE 9.2 mph 17.3 mph N/A   Clear
3:53 PM 23.0 °F 13.9 °F 6.1 °F 48% 30.44 in 10.0 mi NE 8.1 mph - N/A   Clear
4:53 PM 21.9 °F 10.4 °F 7.0 °F 53% 30.45 in 10.0 mi NE 11.5 mph 18.4 mph N/A   Clear
5:53 PM 21.0 °F 14.6 °F 7.0 °F 55% 30.48 in 10.0 mi NE 4.6 mph - N/A   Clear
6:53 PM 21.0 °F - 6.1 °F 53% 30.50 in 10.0 mi Calm Calm - N/A   Clear
7:53 PM 21.0 °F - 6.1 °F 53% 30.52 in 10.0 mi Calm Calm - N/A   Clear
8:53 PM 21.9 °F 14.5 °F 7.0 °F 53% 30.55 in 10.0 mi ESE 5.8 mph - N/A   Clear
9:53 PM 23.0 °F 11.7 °F 6.1 °F 48% 30.58 in 10.0 mi NNE 11.5 mph 18.4 mph N/A   Clear
10:53 PM 21.0 °F 13.4 °F 7.0 °F 55% 30.61 in 10.0 mi ENE 5.8 mph - N/A   Clear
11:53 PM 19.9 °F 12.1 °F 9.0 °F 62% 30.63 in 10.0 mi NE 5.8 mph - N/A   Clear